Private Wetterstation Wechselburg
Wetterdaten: Samstag, 09.07.2011
Datum Zeit Temp. +2m Bodentemp. Temp.+5cm Temp. Wind Windchill X Diff Temp. Feuchte +2m Feuchte +5cm Sonnenschein Luftdruck Regen Wind Richtung Richtung Sonnenschein UV Taupunkt Windchill Windben
09.07.2011 00:00 17,4 C 21,1 C 15,5 C 16,1 C 13,5 C 0,0 C 80 % 88 % 0 % 1012,7 hPa 0,0 l/m 0,0 km/h (0 Bft) W 270 0 min 0,0 UV-I 13,9 C 13,5 C 0,0 km/h (0 Bft)
09.07.2011 00:10 17,2 C 21,0 C 15,3 C 15,9 C 13,2 C 0,0 C 80 % 88 % 0 % 1012,5 hPa 0,0 l/m 0,0 km/h (0 Bft) N 0 0 min 0,0 UV-I 13,7 C 13,2 C 0,0 km/h (0 Bft)
09.07.2011 00:15 17,2 C 21,0 C 15,2 C 15,8 C 13,1 C 0,0 C 80 % 88 % 0 % 1012,5 hPa 0,0 l/m 0,0 km/h (0 Bft) W 270 0 min 0,0 UV-I 13,7 C 13,1 C 0,0 km/h (0 Bft)
09.07.2011 00:20 17,2 C 21,0 C 15,2 C 15,8 C 13,0 C 0,0 C 81 % 88 % 0 % 1012,5 hPa 0,0 l/m 0,0 km/h (0 Bft) W-SW 247 0 min 0,0 UV-I 13,9 C 13,0 C 0,0 km/h (0 Bft)
09.07.2011 00:25 17,1 C 21,0 C 15,1 C 15,7 C 13,0 C 0,0 C 80 % 88 % 0 % 1012,5 hPa 0,0 l/m 0,0 km/h (0 Bft) W-NW 292 0 min 0,0 UV-I 13,6 C 13,0 C 0,0 km/h (0 Bft)
09.07.2011 00:30 17,1 C 21,0 C 15,0 C 15,7 C 13,0 C 0,0 C 80 % 88 % 0 % 1012,6 hPa 0,0 l/m 0,0 km/h (0 Bft) W-NW 292 0 min 0,0 UV-I 13,6 C 13,0 C 0,0 km/h (0 Bft)
09.07.2011 00:35 16,8 C 21,0 C 14,9 C 15,5 C 12,9 C 0,0 C 80 % 88 % 0 % 1012,6 hPa 0,0 l/m 0,0 km/h (0 Bft) W-NW 292 0 min 0,0 UV-I 13,3 C 12,9 C 0,0 km/h (0 Bft)
09.07.2011 00:40 16,9 C 21,0 C 14,9 C 15,5 C 12,8 C 0,0 C 80 % 88 % 0 % 1012,6 hPa 0,0 l/m 0,0 km/h (0 Bft) W-SW 247 0 min 0,0 UV-I 13,4 C 12,8 C 0,0 km/h (0 Bft)
09.07.2011 00:45 16,7 C 21,0 C 14,8 C 15,4 C 12,8 C 0,0 C 81 % 88 % 0 % 1012,6 hPa 0,0 l/m 0,0 km/h (0 Bft) W-SW 247 0 min 0,0 UV-I 13,4 C 12,8 C 0,0 km/h (0 Bft)
09.07.2011 00:50 16,7 C 21,0 C 14,9 C 15,4 C 12,8 C 0,0 C 81 % 88 % 0 % 1012,8 hPa 0,0 l/m 0,0 km/h (0 Bft) W-SW 247 0 min 0,0 UV-I 13,4 C 12,8 C 0,0 km/h (0 Bft)
09.07.2011 00:55 16,5 C 21,0 C 14,7 C 15,3 C 12,8 C 0,0 C 81 % 88 % 0 % 1012,8 hPa 0,0 l/m 0,0 km/h (0 Bft) W-SW 247 0 min 0,0 UV-I 13,2 C 12,8 C 0,0 km/h (0 Bft)
09.07.2011 01:00 16,4 C 21,0 C 14,7 C 15,2 C 12,8 C 0,0 C 82 % 88 % 0 % 1012,8 hPa 0,0 l/m 0,0 km/h (0 Bft) W-SW 247 0 min 0,0 UV-I 13,3 C 12,8 C 0,0 km/h (0 Bft)
09.07.2011 01:10 16,4 C 21,0 C 14,6 C 15,1 C 12,6 C 0,0 C 82 % 89 % 0 % 1012,7 hPa 0,0 l/m 0,0 km/h (0 Bft) N 0 0 min 0,0 UV-I 13,3 C 12,6 C 0,0 km/h (0 Bft)
09.07.2011 01:15 16,3 C 21,0 C 14,5 C 15,1 C 12,6 C 0,0 C 81 % 89 % 0 % 1012,7 hPa 0,0 l/m 0,0 km/h (0 Bft) SO 135 0 min 0,0 UV-I 13,0 C 12,6 C 0,0 km/h (0 Bft)
09.07.2011 01:20 16,2 C 20,9 C 14,4 C 15,0 C 12,6 C 0,0 C 81 % 89 % 0 % 1012,7 hPa 0,0 l/m 0,0 km/h (0 Bft) SO 135 0 min 0,0 UV-I 12,9 C 12,6 C 0,0 km/h (0 Bft)
09.07.2011 01:25 16,2 C 20,9 C 14,5 C 15,0 C 12,7 C 0,0 C 81 % 89 % 0 % 1012,7 hPa 0,0 l/m 0,0 km/h (0 Bft) SO 135 0 min 0,0 UV-I 12,9 C 12,7 C 0,0 km/h (0 Bft)
09.07.2011 01:30 16,1 C 20,9 C 14,4 C 14,9 C 12,6 C 0,0 C 82 % 89 % 0 % 1012,6 hPa 0,0 l/m 0,0 km/h (0 Bft) SO 135 0 min 0,0 UV-I 13,0 C 12,6 C 0,0 km/h (0 Bft)
09.07.2011 01:35 16,0 C 20,9 C 14,4 C 14,8 C 12,5 C 0,0 C 82 % 89 % 0 % 1012,6 hPa 0,0 l/m 0,0 km/h (0 Bft) SO 135 0 min 0,0 UV-I 12,9 C 12,5 C 0,0 km/h (0 Bft)
09.07.2011 01:40 15,9 C 20,9 C 14,3 C 14,8 C 12,5 C 0,0 C 82 % 89 % 0 % 1012,6 hPa 0,0 l/m 0,0 km/h (0 Bft) O-SO 112 0 min 0,0 UV-I 12,8 C 12,5 C 0,0 km/h (0 Bft)
09.07.2011 01:45 15,6 C 20,9 C 14,0 C 14,6 C 12,5 C 0,0 C 82 % 89 % 0 % 1012,6 hPa 0,0 l/m 0,0 km/h (0 Bft) O-SO 112 0 min 0,0 UV-I 12,5 C 12,5 C 0,0 km/h (0 Bft)
09.07.2011 01:50 15,7 C 20,9 C 14,1 C 14,6 C 12,4 C 0,0 C 83 % 89 % 0 % 1012,8 hPa 0,0 l/m 0,0 km/h (0 Bft) O-SO 112 0 min 0,0 UV-I 12,8 C 12,4 C 0,0 km/h (0 Bft)
09.07.2011 01:55 15,8 C 20,8 C 14,2 C 14,6 C 12,2 C 0,0 C 83 % 89 % 0 % 1012,8 hPa 0,0 l/m 0,0 km/h (0 Bft) SW 225 0 min 0,0 UV-I 12,9 C 12,2 C 0,0 km/h (0 Bft)
09.07.2011 02:00 15,7 C 20,9 C 14,1 C 14,5 C 12,2 C 0,0 C 82 % 89 % 0 % 1012,8 hPa 0,0 l/m 0,0 km/h (0 Bft) SW 225 0 min 0,0 UV-I 12,6 C 12,2 C 0,0 km/h (0 Bft)
09.07.2011 02:09 15,7 C 20,8 C 14,0 C 14,5 C 12,1 C 0,0 C 83 % 89 % 0 % 1013,1 hPa 0,0 l/m 0,0 km/h (0 Bft) N 0 0 min 0,0 UV-I 12,8 C 12,1 C 0,0 km/h (0 Bft)
09.07.2011 02:15 15,6 C 20,7 C 13,9 C 14,4 C 12,1 C 0,0 C 82 % 89 % 0 % 1013,1 hPa 0,0 l/m 0,0 km/h (0 Bft) SW 225 0 min 0,0 UV-I 12,5 C 12,1 C 0,0 km/h (0 Bft)
09.07.2011 02:20 15,6 C 20,7 C 13,9 C 14,4 C 12,1 C 0,0 C 83 % 89 % 0 % 1013,1 hPa 0,0 l/m 0,0 km/h (0 Bft) SW 225 0 min 0,0 UV-I 12,7 C 12,1 C 0,0 km/h (0 Bft)
09.07.2011 02:25 15,5 C 20,8 C 13,9 C 14,3 C 12,0 C 0,0 C 82 % 89 % 0 % 1013,1 hPa 0,0 l/m 0,0 km/h (0 Bft) SW 225 0 min 0,0 UV-I 12,4 C 12,0 C 0,0 km/h (0 Bft)
09.07.2011 02:30 15,3 C 20,8 C 13,8 C 14,2 C 11,9 C 0,0 C 82 % 89 % 0 % 1012,9 hPa 0,0 l/m 0,0 km/h (0 Bft) SW 225 0 min 0,0 UV-I 12,2 C 11,9 C 0,0 km/h (0 Bft)
09.07.2011 02:35 15,3 C 20,8 C 13,7 C 14,2 C 12,0 C 0,0 C 82 % 89 % 0 % 1012,9 hPa 0,0 l/m 0,0 km/h (0 Bft) SW 225 0 min 0,0 UV-I 12,2 C 12,0 C 0,0 km/h (0 Bft)
09.07.2011 02:40 15,0 C 20,7 C 13,5 C 14,0 C 12,0 C 0,0 C 83 % 89 % 0 % 1012,9 hPa 0,0 l/m 0,0 km/h (0 Bft) SW 225 0 min 0,0 UV-I 12,1 C 12,0 C 0,0 km/h (0 Bft)
09.07.2011 02:45 14,9 C 20,8 C 13,4 C 14,0 C 12,1 C 0,0 C 84 % 89 % 0 % 1012,9 hPa 0,0 l/m 0,0 km/h (0 Bft) SO 135 0 min 0,0 UV-I 12,2 C 12,1 C 0,0 km/h (0 Bft)
09.07.2011 02:50 14,9 C 20,7 C 13,5 C 14,0 C 12,1 C 0,0 C 84 % 90 % 0 % 1012,8 hPa 0,0 l/m 0,0 km/h (0 Bft) SO 135 0 min 0,0 UV-I 12,2 C 12,1 C 0,0 km/h (0 Bft)
09.07.2011 02:55 15,1 C 20,7 C 13,5 C 14,1 C 12,0 C 0,0 C 84 % 90 % 0 % 1012,8 hPa 0,0 l/m 0,0 km/h (0 Bft) SO 135 0 min 0,0 UV-I 12,4 C 12,0 C 0,0 km/h (0 Bft)
09.07.2011 03:00 14,9 C 20,7 C 13,4 C 13,9 C 12,0 C 0,0 C 84 % 90 % 0 % 1012,8 hPa 0,0 l/m 0,0 km/h (0 Bft) SO 135 0 min 0,0 UV-I 12,2 C 12,0 C 0,0 km/h (0 Bft)
09.07.2011 03:09 14,9 C 20,6 C 13,5 C 13,9 C 12,0 C 0,0 C 84 % 90 % 0 % 1012,9 hPa 0,0 l/m 0,0 km/h (0 Bft) N 0 0 min 0,0 UV-I 12,2 C 12,0 C 0,0 km/h (0 Bft)
09.07.2011 03:15 14,8 C 20,6 C 13,4 C 13,8 C 11,9 C 0,0 C 84 % 90 % 0 % 1012,9 hPa 0,0 l/m 0,0 km/h (0 Bft) S 180 0 min 0,0 UV-I 12,1 C 11,9 C 0,0 km/h (0 Bft)
09.07.2011 03:20 14,7 C 20,6 C 13,3 C 13,8 C 12,0 C 0,0 C 84 % 90 % 0 % 1012,9 hPa 0,0 l/m 0,0 km/h (0 Bft) SO 135 0 min 0,0 UV-I 12,0 C 12,0 C 0,0 km/h (0 Bft)
09.07.2011 03:25 14,8 C 20,6 C 13,3 C 13,9 C 12,0 C 0,0 C 84 % 90 % 0 % 1012,9 hPa 0,0 l/m 0,0 km/h (0 Bft) SO 135 0 min 0,0 UV-I 12,1 C 12,0 C 0,0 km/h (0 Bft)
09.07.2011 03:30 14,9 C 20,6 C 13,3 C 13,9 C 11,9 C 0,0 C 84 % 90 % 0 % 1012,7 hPa 0,0 l/m 0,0 km/h (0 Bft) SO 135 0 min 0,0 UV-I 12,2 C 11,9 C 0,0 km/h (0 Bft)
09.07.2011 03:35 14,8 C 20,6 C 13,4 C 13,8 C 11,9 C 0,0 C 84 % 90 % 0 % 1012,7 hPa 0,0 l/m 0,0 km/h (0 Bft) SO 135 0 min 0,0 UV-I 12,1 C 11,9 C 0,0 km/h (0 Bft)
09.07.2011 03:40 14,8 C 20,6 C 13,3 C 13,8 C 11,9 C 0,0 C 84 % 90 % 0 % 1012,7 hPa 0,0 l/m 0,0 km/h (0 Bft) SW 225 0 min 0,0 UV-I 12,1 C 11,9 C 0,0 km/h (0 Bft)
09.07.2011 03:45 14,8 C 20,5 C 13,4 C 13,8 C 11,8 C 0,0 C 84 % 90 % 0 % 1012,7 hPa 0,0 l/m 0,0 km/h (0 Bft) S-SW 202 0 min 0,0 UV-I 12,1 C 11,8 C 0,0 km/h (0 Bft)
09.07.2011 03:50 14,8 C 20,5 C 13,3 C 13,8 C 11,7 C 0,0 C 84 % 90 % 0 % 1012,8 hPa 0,0 l/m 0,0 km/h (0 Bft) W-SW 247 0 min 0,0 UV-I 12,1 C 11,7 C 0,0 km/h (0 Bft)
09.07.2011 03:55 14,7 C 20,5 C 13,2 C 13,7 C 11,6 C 0,0 C 83 % 90 % 0 % 1012,8 hPa 0,0 l/m 0,0 km/h (0 Bft) W 270 0 min 0,0 UV-I 11,8 C 11,6 C 0,0 km/h (0 Bft)
09.07.2011 04:00 14,7 C 20,5 C 13,3 C 13,7 C 11,6 C 0,0 C 84 % 90 % 0 % 1012,8 hPa 0,0 l/m 0,0 km/h (0 Bft) W 270 0 min 0,0 UV-I 12,0 C 11,6 C 0,0 km/h (0 Bft)
09.07.2011 04:08 14,7 C 20,6 C 13,2 C 13,6 C 11,5 C 0,0 C 84 % 90 % 0 % 1012,7 hPa 0,0 l/m 0,0 km/h (0 Bft) N 0 0 min 0,0 UV-I 12,0 C 11,5 C 0,0 km/h (0 Bft)
09.07.2011 04:15 14,4 C 20,6 C 13,1 C 13,5 C 11,6 C 0,0 C 84 % 90 % 0 % 1012,7 hPa 0,0 l/m 0,0 km/h (0 Bft) W 270 0 min 0,0 UV-I 11,7 C 11,6 C 0,0 km/h (0 Bft)
09.07.2011 04:20 14,4 C 20,5 C 13,1 C 13,5 C 11,6 C 0,0 C 85 % 90 % 0 % 1012,7 hPa 0,0 l/m 0,0 km/h (0 Bft) W 270 0 min 0,0 UV-I 11,9 C 11,6 C 0,0 km/h (0 Bft)
09.07.2011 04:25 14,4 C 20,6 C 13,2 C 13,5 C 11,6 C 0,0 C 85 % 90 % 0 % 1012,7 hPa 0,0 l/m 0,0 km/h (0 Bft) W 270 0 min 0,0 UV-I 11,9 C 11,6 C 0,0 km/h (0 Bft)
09.07.2011 04:30 14,4 C 20,6 C 13,1 C 13,5 C 11,6 C 0,0 C 84 % 91 % 0 % 1013,0 hPa 0,0 l/m 0,0 km/h (0 Bft) W 270 0 min 0,0 UV-I 11,7 C 11,6 C 0,0 km/h (0 Bft)
09.07.2011 04:35 14,3 C 20,5 C 13,1 C 13,4 C 11,7 C 0,0 C 85 % 91 % 0 % 1013,0 hPa 0,0 l/m 0,0 km/h (0 Bft) W 270 0 min 0,0 UV-I 11,8 C 11,7 C 0,0 km/h (0 Bft)
09.07.2011 04:40 14,3 C 20,5 C 13,1 C 13,5 C 11,8 C 0,0 C 85 % 91 % 0 % 1013,0 hPa 0,0 l/m 0,0 km/h (0 Bft) W-SW 247 0 min 0,0 UV-I 11,8 C 11,8 C 0,0 km/h (0 Bft)
09.07.2011 04:45 14,4 C 20,5 C 13,0 C 13,5 C 11,6 C 0,0 C 85 % 91 % 0 % 1013,0 hPa 0,0 l/m 0,0 km/h (0 Bft) W-SW 247 0 min 0,0 UV-I 11,9 C 11,6 C 0,0 km/h (0 Bft)
09.07.2011 04:50 14,4 C 20,5 C 13,0 C 13,5 C 11,6 C 0,0 C 85 % 91 % 0 % 1013,0 hPa 0,0 l/m 0,0 km/h (0 Bft) SO 135 0 min 0,0 UV-I 11,9 C 11,6 C 0,0 km/h (0 Bft)
09.07.2011 04:55 14,2 C 20,5 C 13,1 C 13,4 C 11,8 C 0,0 C 85 % 91 % 0 % 1013,0 hPa 0,0 l/m 0,0 km/h (0 Bft) SO 135 0 min 0,0 UV-I 11,7 C 11,8 C 0,0 km/h (0 Bft)
09.07.2011 05:00 14,2 C 20,5 C 13,0 C 13,4 C 11,9 C 0,0 C 86 % 91 % 0 % 1013,0 hPa 0,0 l/m 0,0 km/h (0 Bft) O-NO 67 0 min 0,0 UV-I 11,9 C 11,9 C 0,0 km/h (0 Bft)
09.07.2011 05:09 14,4 C 20,4 C 13,1 C 13,7 C 12,2 C 0,0 C 86 % 91 % 0 % 1013,0 hPa 0,0 l/m 0,0 km/h (0 Bft) N 0 0 min 0,0 UV-I 12,1 C 12,2 C 0,0 km/h (0 Bft)
09.07.2011 05:15 14,5 C 20,3 C 13,2 C 13,8 C 12,3 C 0,0 C 86 % 91 % 0 % 1013,0 hPa 0,0 l/m 0,0 km/h (0 Bft) SW 225 0 min 0,0 UV-I 12,2 C 12,3 C 0,0 km/h (0 Bft)
09.07.2011 05:20 14,4 C 20,3 C 13,2 C 13,7 C 12,3 C 0,0 C 86 % 91 % 0 % 1013,0 hPa 0,0 l/m 0,0 km/h (0 Bft) SW 225 0 min 0,0 UV-I 12,1 C 12,3 C 0,0 km/h (0 Bft)
09.07.2011 05:25 14,4 C 20,3 C 13,2 C 13,7 C 12,4 C 0,0 C 86 % 91 % 0 % 1013,0 hPa 0,0 l/m 0,0 km/h (0 Bft) SW 225 0 min 0,0 UV-I 12,1 C 12,4 C 0,0 km/h (0 Bft)
09.07.2011 05:30 14,6 C 20,3 C 13,3 C 13,9 C 12,5 C 0,0 C 86 % 91 % 0 % 1013,2 hPa 0,0 l/m 0,2 km/h (0 Bft) W-SW 247 0 min 0,0 UV-I 12,3 C 12,5 C 0,0 km/h (0 Bft)
09.07.2011 05:35 14,7 C 20,3 C 13,1 C 13,9 C 12,4 C 0,0 C 86 % 91 % 0 % 1013,2 hPa 0,0 l/m 0,5 km/h (0 Bft) W-SW 247 0 min 0,0 UV-I 12,4 C 12,4 C 0,0 km/h (0 Bft)
09.07.2011 05:40 14,7 C 20,3 C 13,2 C 13,9 C 12,4 C 0,0 C 86 % 91 % 0 % 1013,2 hPa 0,0 l/m 0,5 km/h (0 Bft) SW 225 0 min 0,0 UV-I 12,4 C 12,4 C 0,0 km/h (0 Bft)
09.07.2011 05:45 14,7 C 20,2 C 13,3 C 13,9 C 12,4 C 0,0 C 85 % 91 % 0 % 1013,2 hPa 0,0 l/m 0,0 km/h (0 Bft) SW 225 0 min 0,0 UV-I 12,2 C 12,4 C 0,0 km/h (0 Bft)
09.07.2011 05:50 14,6 C 20,3 C 13,3 C 13,9 C 12,4 C 0,0 C 85 % 91 % 0 % 1013,3 hPa 0,0 l/m 0,0 km/h (0 Bft) SW 225 0 min 0,0 UV-I 12,1 C 12,4 C 0,0 km/h (0 Bft)
09.07.2011 05:55 14,3 C 20,3 C 13,2 C 13,7 C 12,6 C 0,0 C 85 % 91 % 0 % 1013,3 hPa 0,0 l/m 0,0 km/h (0 Bft) O 90 0 min 0,0 UV-I 11,8 C 12,6 C 0,0 km/h (0 Bft)
09.07.2011 06:00 14,2 C 20,3 C 13,2 C 13,7 C 12,6 C 0,0 C 86 % 91 % 0 % 1013,3 hPa 0,0 l/m 0,0 km/h (0 Bft) O 90 0 min 0,0 UV-I 11,9 C 12,6 C 0,0 km/h (0 Bft)
09.07.2011 06:09 14,5 C 20,2 C 13,5 C 14,0 C 12,9 C 0,0 C 87 % 91 % 0 % 1013,2 hPa 0,0 l/m 0,0 km/h (0 Bft) N 0 0 min 0,0 UV-I 12,4 C 12,9 C 0,0 km/h (0 Bft)
09.07.2011 06:15 14,5 C 20,2 C 13,5 C 14,1 C 13,2 C 0,0 C 87 % 92 % 0 % 1013,2 hPa 0,0 l/m 0,0 km/h (0 Bft) O 90 0 min 0,0 UV-I 12,4 C 13,2 C 0,0 km/h (0 Bft)
09.07.2011 06:20 14,6 C 20,2 C 13,6 C 14,1 C 13,2 C 0,0 C 87 % 92 % 0 % 1013,2 hPa 0,0 l/m 0,0 km/h (0 Bft) O 90 0 min 0,0 UV-I 12,5 C 13,2 C 0,0 km/h (0 Bft)
09.07.2011 06:25 14,7 C 20,2 C 13,7 C 14,2 C 13,3 C 0,0 C 87 % 92 % 0 % 1013,2 hPa 0,0 l/m 0,0 km/h (0 Bft) SW 225 0 min 0,0 UV-I 12,6 C 13,3 C 0,0 km/h (0 Bft)
09.07.2011 06:30 14,8 C 20,2 C 13,7 C 14,3 C 13,2 C 0,0 C 87 % 92 % 0 % 1013,2 hPa 0,0 l/m 0,0 km/h (0 Bft) SW 225 0 min 0,0 UV-I 12,7 C 13,2 C 0,0 km/h (0 Bft)
09.07.2011 06:35 15,1 C 20,1 C 13,8 C 14,5 C 13,3 C 0,0 C 87 % 92 % 0 % 1013,2 hPa 0,0 l/m 0,0 km/h (0 Bft) SW 225 0 min 0,0 UV-I 13,0 C 13,3 C 0,0 km/h (0 Bft)
09.07.2011 06:40 15,1 C 20,0 C 13,9 C 14,5 C 13,4 C 0,0 C 87 % 92 % 0 % 1013,2 hPa 0,0 l/m 0,0 km/h (0 Bft) SW 225 0 min 0,0 UV-I 13,0 C 13,4 C 0,0 km/h (0 Bft)
09.07.2011 06:45 15,5 C 20,0 C 14,0 C 14,8 C 13,5 C 0,0 C 86 % 92 % 0 % 1013,2 hPa 0,0 l/m 0,0 km/h (0 Bft) SW 225 0 min 0,0 UV-I 13,2 C 13,5 C 0,0 km/h (0 Bft)
09.07.2011 06:50 15,6 C 20,0 C 14,1 C 14,9 C 13,6 C 0,0 C 86 % 92 % 0 % 1013,4 hPa 0,0 l/m 0,0 km/h (0 Bft) SW 225 0 min 0,0 UV-I 13,3 C 13,6 C 0,0 km/h (0 Bft)
09.07.2011 06:55 17,1 C 20,0 C 14,4 C 16,1 C 14,1 C 0,0 C 84 % 92 % 0 % 1013,4 hPa 0,0 l/m 0,0 km/h (0 Bft) SW 225 0 min 0,0 UV-I 14,4 C 14,1 C 0,0 km/h (0 Bft)
09.07.2011 07:00 17,1 C 19,9 C 14,6 C 16,4 C 14,9 C 0,0 C 82 % 92 % 0 % 1013,4 hPa 0,0 l/m 0,0 km/h (0 Bft) SW 225 0 min 0,0 UV-I 14,0 C 14,9 C 0,0 km/h (0 Bft)
09.07.2011 07:09 16,8 C 19,9 C 15,1 C 16,6 C 16,1 C 0,0 C 83 % 91 % 0 % 1013,4 hPa 0,0 l/m 0,2 km/h (0 Bft) N 0 0 min 0,0 UV-I 13,9 C 16,1 C 0,0 km/h (0 Bft)
09.07.2011 07:15 17,1 C 19,9 C 15,1 C 18,3 C 18,3 C 1,2 C 83 % 91 % 32 % 1013,4 hPa 0,0 l/m 0,0 km/h (0 Bft) W 270 0 min 0,0 UV-I 14,2 C 18,3 C 0,0 km/h (0 Bft)
09.07.2011 07:20 17,3 C 19,9 C 15,1 C 19,5 C 19,5 C 2,2 C 83 % 91 % 58 % 1013,4 hPa 0,0 l/m 0,0 km/h (0 Bft) W 270 0 min 0,0 UV-I 14,4 C 19,5 C 0,0 km/h (0 Bft)
09.07.2011 07:25 17,5 C 19,9 C 15,2 C 21,2 C 21,2 C 3,7 C 83 % 91 % 97 % 1013,4 hPa 0,0 l/m 0,0 km/h (0 Bft) W 270 5 min 0,0 UV-I 14,6 C 21,2 C 0,0 km/h (0 Bft)
09.07.2011 07:30 17,4 C 19,8 C 15,2 C 21,9 C 21,9 C 4,5 C 82 % 91 % 100 % 1013,6 hPa 0,0 l/m 0,0 km/h (0 Bft) W-SW 247 5 min 0,0 UV-I 14,3 C 21,9 C 0,0 km/h (0 Bft)
09.07.2011 07:35 17,5 C 19,8 C 15,3 C 22,9 C 22,9 C 5,4 C 82 % 91 % 100 % 1013,6 hPa 0,0 l/m 0,2 km/h (0 Bft) W-SW 247 5 min 0,0 UV-I 14,4 C 22,9 C 1,8 km/h (1 Bft)
09.07.2011 07:40 17,7 C 19,8 C 15,5 C 23,4 C 23,4 C 5,7 C 82 % 91 % 100 % 1013,6 hPa 0,0 l/m 0,3 km/h (0 Bft) W-SW 247 5 min 0,0 UV-I 14,6 C 23,4 C 0,0 km/h (0 Bft)
09.07.2011 07:45 17,9 C 19,8 C 15,6 C 24,3 C 24,3 C 6,4 C 81 % 91 % 100 % 1013,6 hPa 0,0 l/m 0,3 km/h (0 Bft) W 270 5 min 0,0 UV-I 14,6 C 24,3 C 0,0 km/h (0 Bft)
09.07.2011 07:50 18,4 C 19,8 C 15,7 C 24,7 C 24,7 C 6,3 C 80 % 91 % 100 % 1013,5 hPa 0,0 l/m 0,2 km/h (0 Bft) W-SW 247 5 min 0,0 UV-I 14,9 C 24,7 C 0,0 km/h (0 Bft)
09.07.2011 07:55 19,1 C 19,8 C 15,8 C 25,2 C 25,2 C 6,1 C 78 % 91 % 100 % 1013,5 hPa 0,0 l/m 0,3 km/h (0 Bft) W-SW 247 5 min 0,0 UV-I 15,2 C 25,2 C 1,8 km/h (1 Bft)
09.07.2011 08:00 19,3 C 19,7 C 16,1 C 25,7 C 25,7 C 6,4 C 78 % 91 % 100 % 1013,5 hPa 0,0 l/m 0,3 km/h (0 Bft) SO 135 5 min 0,0 UV-I 15,4 C 25,7 C 0,0 km/h (0 Bft)
09.07.2011 08:09 19,9 C 19,7 C 16,3 C 27,2 C 27,2 C 7,3 C 76 % 91 % 100 % 1013,3 hPa 0,0 l/m 0,0 km/h (0 Bft) N 0 9 min 0,0 UV-I 15,5 C 27,2 C 0,0 km/h (0 Bft)
09.07.2011 08:15 20,1 C 19,7 C 16,5 C 27,7 C 27,7 C 7,6 C 76 % 90 % 100 % 1013,3 hPa 0,0 l/m 0,3 km/h (0 Bft) N-NO 22 6 min 0,0 UV-I 15,7 C 27,7 C 2,4 km/h (1 Bft)
09.07.2011 08:20 20,7 C 19,7 C 16,7 C 28,0 C 28,0 C 7,3 C 76 % 90 % 100 % 1013,3 hPa 0,0 l/m 0,3 km/h (0 Bft) S 180 5 min 0,0 UV-I 16,3 C 28,0 C 0,0 km/h (0 Bft)
09.07.2011 08:25 22,7 C 19,7 C 17,1 C 28,8 C 28,8 C 6,1 C 71 % 89 % 100 % 1013,3 hPa 0,0 l/m 0,2 km/h (0 Bft) O-SO 112 5 min 0,0 UV-I 17,2 C 28,8 C 0,0 km/h (0 Bft)
09.07.2011 08:30 22,3 C 19,7 C 17,3 C 29,2 C 29,2 C 6,9 C 71 % 89 % 100 % 1013,2 hPa 0,0 l/m 0,2 km/h (0 Bft) NW 315 5 min 0,0 UV-I 16,8 C 29,2 C 0,0 km/h (0 Bft)
09.07.2011 08:35 25,5 C 19,7 C 17,5 C 29,5 C 29,5 C 4,0 C 64 % 89 % 100 % 1013,2 hPa 0,0 l/m 0,3 km/h (0 Bft) SW 225 5 min 0,0 UV-I 18,2 C 29,5 C 2,7 km/h (1 Bft)
09.07.2011 08:40 26,0 C 19,7 C 17,5 C 29,9 C 29,9 C 3,9 C 61 % 88 % 100 % 1013,2 hPa 0,0 l/m 0,3 km/h (0 Bft) SW 225 5 min 1,0 UV-I 17,9 C 29,9 C 1,6 km/h (1 Bft)
09.07.2011 08:45 23,9 C 19,7 C 17,7 C 30,1 C 30,1 C 6,2 C 62 % 87 % 100 % 1013,2 hPa 0,0 l/m 0,2 km/h (0 Bft) W-SW 247 5 min 1,0 UV-I 16,2 C 30,1 C 2,9 km/h (1 Bft)
09.07.2011 08:50 23,2 C 19,7 C 17,9 C 30,4 C 30,4 C 7,2 C 64 % 87 % 100 % 1013,2 hPa 0,0 l/m 0,2 km/h (0 Bft) W-SW 247 5 min 1,1 UV-I 16,0 C 30,4 C 0,0 km/h (0 Bft)
09.07.2011 08:55 23,3 C 19,7 C 18,1 C 30,8 C 30,8 C 7,5 C 65 % 86 % 100 % 1013,2 hPa 0,0 l/m 0,0 km/h (0 Bft) O-SO 112 5 min 1,2 UV-I 16,3 C 30,8 C 0,0 km/h (0 Bft)
09.07.2011 09:00 24,5 C 19,7 C 18,4 C 31,0 C 31,0 C 6,5 C 62 % 86 % 100 % 1013,2 hPa 0,0 l/m 0,0 km/h (0 Bft) O-NO 67 5 min 1,3 UV-I 16,7 C 31,0 C 0,0 km/h (0 Bft)
09.07.2011 09:10 23,5 C 19,7 C 18,8 C 31,4 C 31,4 C 7,9 C 63 % 84 % 100 % 1013,3 hPa 0,0 l/m 0,3 km/h (0 Bft) N 0 10 min 1,4 UV-I 16,0 C 31,4 C 3,7 km/h (1 Bft)
09.07.2011 09:15 23,0 C 19,7 C 18,9 C 31,5 C 31,5 C 8,5 C 65 % 84 % 100 % 1013,3 hPa 0,0 l/m 0,3 km/h (0 Bft) N-NO 22 5 min 1,5 UV-I 16,1 C 31,5 C 4,0 km/h (1 Bft)
09.07.2011 09:20 22,9 C 19,7 C 19,0 C 31,4 C 31,4 C 8,5 C 66 % 84 % 100 % 1013,3 hPa 0,0 l/m 0,3 km/h (0 Bft) O-SO 112 5 min 1,6 UV-I 16,2 C 31,4 C 2,6 km/h (1 Bft)
09.07.2011 09:25 22,9 C 19,7 C 19,3 C 31,6 C 31,6 C 8,7 C 67 % 84 % 100 % 1013,3 hPa 0,0 l/m 0,6 km/h (0 Bft) W-SW 247 5 min 1,7 UV-I 16,4 C 31,6 C 2,6 km/h (1 Bft)
09.07.2011 09:30 22,8 C 19,6 C 19,3 C 31,9 C 31,9 C 9,1 C 66 % 84 % 100 % 1012,9 hPa 0,0 l/m 0,8 km/h (0 Bft) S-SW 202 5 min 1,8 UV-I 16,1 C 31,9 C 0,0 km/h (0 Bft)
09.07.2011 09:35 22,9 C 19,7 C 19,6 C 31,8 C 31,8 C 8,9 C 65 % 82 % 100 % 1012,9 hPa 0,0 l/m 1,3 km/h (1 Bft) SW 225 5 min 1,9 UV-I 16,0 C 31,8 C 5,0 km/h (1 Bft)
09.07.2011 09:40 22,9 C 19,7 C 19,7 C 32,0 C 32,0 C 9,1 C 65 % 82 % 100 % 1012,9 hPa 0,0 l/m 1,0 km/h (0 Bft) SO 135 5 min 2,0 UV-I 16,0 C 32,0 C 0,0 km/h (0 Bft)
09.07.2011 09:45 23,1 C 19,7 C 19,9 C 32,5 C 32,5 C 9,4 C 64 % 81 % 100 % 1012,9 hPa 0,0 l/m 1,0 km/h (0 Bft) S-SW 202 5 min 2,1 UV-I 15,9 C 32,5 C 8,0 km/h (2 Bft)
09.07.2011 09:50 23,1 C 19,7 C 19,9 C 32,1 C 32,1 C 9,0 C 64 % 80 % 100 % 1013,1 hPa 0,0 l/m 1,3 km/h (1 Bft) NO 45 5 min 2,1 UV-I 15,9 C 32,1 C 0,0 km/h (0 Bft)
09.07.2011 09:55 23,2 C 19,7 C 20,1 C 31,8 C 31,8 C 8,6 C 63 % 79 % 100 % 1013,1 hPa 0,0 l/m 2,3 km/h (1 Bft) N 360 5 min 1,5 UV-I 15,8 C 31,8 C 9,0 km/h (2 Bft)
09.07.2011 10:00 23,3 C 19,7 C 20,3 C 31,6 C 31,6 C 8,3 C 64 % 79 % 100 % 1013,1 hPa 0,0 l/m 2,1 km/h (1 Bft) SW 225 5 min 1,4 UV-I 16,1 C 31,6 C 1,8 km/h (1 Bft)
09.07.2011 10:10 23,5 C 19,7 C 20,7 C 32,3 C 32,3 C 8,8 C 65 % 78 % 100 % 1012,9 hPa 0,0 l/m 0,8 km/h (0 Bft) N 0 10 min 1,2 UV-I 16,5 C 32,3 C 1,6 km/h (1 Bft)
09.07.2011 10:15 23,5 C 19,8 C 20,7 C 32,5 C 32,5 C 9,0 C 65 % 78 % 100 % 1012,9 hPa 0,0 l/m 0,6 km/h (0 Bft) O-NO 67 5 min 1,3 UV-I 16,5 C 32,5 C 3,7 km/h (1 Bft)
09.07.2011 10:20 23,7 C 19,8 C 21,1 C 32,4 C 32,4 C 8,7 C 64 % 78 % 100 % 1012,9 hPa 0,0 l/m 0,8 km/h (0 Bft) SW 225 5 min 1,4 UV-I 16,5 C 32,4 C 3,1 km/h (1 Bft)
09.07.2011 10:25 23,7 C 19,8 C 21,1 C 32,4 C 32,4 C 8,7 C 64 % 76 % 100 % 1012,9 hPa 0,0 l/m 1,1 km/h (1 Bft) W-NW 292 5 min 1,3 UV-I 16,5 C 32,4 C 2,4 km/h (1 Bft)
09.07.2011 10:30 23,8 C 19,8 C 21,2 C 32,4 C 32,4 C 8,6 C 64 % 77 % 100 % 1013,0 hPa 0,0 l/m 1,3 km/h (1 Bft) O-NO 67 5 min 1,4 UV-I 16,6 C 32,4 C 0,0 km/h (0 Bft)
09.07.2011 10:35 23,9 C 19,8 C 21,3 C 32,6 C 32,6 C 8,7 C 62 % 75 % 100 % 1013,0 hPa 0,0 l/m 1,1 km/h (1 Bft) O-NO 67 5 min 2,2 UV-I 16,2 C 32,6 C 0,0 km/h (0 Bft)
09.07.2011 10:40 24,0 C 19,8 C 21,5 C 32,3 C 32,3 C 8,3 C 61 % 74 % 100 % 1013,0 hPa 0,0 l/m 1,6 km/h (1 Bft) O-SO 112 5 min 3,0 UV-I 16,0 C 32,3 C 1,8 km/h (1 Bft)
09.07.2011 10:45 24,1 C 19,8 C 21,5 C 32,3 C 32,3 C 8,2 C 61 % 74 % 100 % 1013,0 hPa 0,0 l/m 2,3 km/h (1 Bft) S-SO 157 5 min 3,2 UV-I 16,1 C 32,3 C 3,7 km/h (1 Bft)
09.07.2011 10:50 24,3 C 19,8 C 21,8 C 32,1 C 32,1 C 7,8 C 60 % 72 % 100 % 1013,2 hPa 0,0 l/m 1,9 km/h (1 Bft) NO 45 5 min 3,4 UV-I 16,0 C 32,1 C 4,3 km/h (1 Bft)
09.07.2011 10:55 24,4 C 19,8 C 22,0 C 31,6 C 31,6 C 7,2 C 60 % 72 % 100 % 1013,2 hPa 0,0 l/m 2,9 km/h (1 Bft) W-SW 247 5 min 3,5 UV-I 16,1 C 31,6 C 10,5 km/h (2 Bft)
09.07.2011 11:00 24,4 C 19,9 C 22,0 C 31,4 C 31,4 C 7,0 C 60 % 72 % 100 % 1013,2 hPa 0,0 l/m 3,1 km/h (1 Bft) O-SO 112 5 min 3,5 UV-I 16,1 C 31,4 C 2,7 km/h (1 Bft)
09.07.2011 11:09 24,7 C 19,9 C 22,3 C 31,4 C 31,4 C 6,7 C 60 % 71 % 100 % 1013,1 hPa 0,0 l/m 2,4 km/h (1 Bft) N 0 9 min 3,7 UV-I 16,4 C 31,4 C 11,4 km/h (2 Bft)
09.07.2011 11:15 24,9 C 20,0 C 22,4 C 31,3 C 31,3 C 6,4 C 59 % 70 % 100 % 1013,1 hPa 0,0 l/m 3,1 km/h (1 Bft) S-SW 202 6 min 3,8 UV-I 16,3 C 31,3 C 13,5 km/h (3 Bft)
09.07.2011 11:20 24,9 C 19,9 C 22,4 C 31,5 C 31,5 C 6,6 C 59 % 70 % 100 % 1013,1 hPa 0,0 l/m 3,2 km/h (1 Bft) SO 135 5 min 3,9 UV-I 16,3 C 31,5 C 6,1 km/h (2 Bft)
09.07.2011 11:25 25,1 C 20,0 C 22,7 C 31,6 C 31,6 C 6,5 C 58 % 69 % 100 % 1013,1 hPa 0,0 l/m 2,6 km/h (1 Bft) O-SO 112 5 min 4,0 UV-I 16,2 C 31,6 C 4,3 km/h (1 Bft)
09.07.2011 11:30 25,1 C 20,0 C 22,9 C 31,3 C 31,3 C 6,2 C 57 % 68 % 100 % 1013,3 hPa 0,0 l/m 3,9 km/h (1 Bft) W-SW 247 5 min 3,2 UV-I 16,0 C 31,3 C 13,5 km/h (3 Bft)
09.07.2011 11:35 25,0 C 20,0 C 22,9 C 30,6 C 30,6 C 5,6 C 58 % 69 % 100 % 1013,3 hPa 0,0 l/m 4,8 km/h (1 Bft) W-SW 247 5 min 1,8 UV-I 16,1 C 30,6 C 9,7 km/h (2 Bft)
09.07.2011 11:40 25,1 C 20,0 C 22,8 C 30,5 C 30,5 C 5,4 C 59 % 69 % 100 % 1013,3 hPa 0,0 l/m 4,7 km/h (1 Bft) SW 225 5 min 2,0 UV-I 16,5 C 30,5 C 3,9 km/h (1 Bft)
09.07.2011 11:45 25,3 C 20,1 C 22,9 C 30,9 C 30,9 C 5,6 C 58 % 69 % 100 % 1013,3 hPa 0,0 l/m 3,2 km/h (1 Bft) SW 225 5 min 2,1 UV-I 16,4 C 30,9 C 3,9 km/h (1 Bft)
09.07.2011 11:50 25,3 C 20,1 C 23,1 C 31,4 C 31,4 C 6,1 C 58 % 69 % 100 % 1012,8 hPa 0,0 l/m 2,3 km/h (1 Bft) S-SW 202 5 min 3,8 UV-I 16,4 C 31,4 C 0,0 km/h (0 Bft)
09.07.2011 11:55 25,6 C 20,1 C 23,2 C 31,7 C 31,7 C 6,1 C 57 % 68 % 100 % 1012,8 hPa 0,0 l/m 2,3 km/h (1 Bft) SW 225 5 min 3,5 UV-I 16,4 C 31,7 C 3,2 km/h (1 Bft)
09.07.2011 12:00 25,7 C 20,1 C 23,4 C 31,7 C 31,7 C 6,0 C 58 % 67 % 100 % 1012,8 hPa 0,0 l/m 2,9 km/h (1 Bft) O-SO 112 5 min 3,5 UV-I 16,8 C 31,7 C 7,1 km/h (2 Bft)
09.07.2011 12:09 25,9 C 20,2 C 23,6 C 31,9 C 31,9 C 6,0 C 57 % 67 % 100 % 1012,8 hPa 0,0 l/m 3,1 km/h (1 Bft) N 0 9 min 4,6 UV-I 16,7 C 31,9 C 6,1 km/h (2 Bft)
09.07.2011 12:15 26,1 C 20,2 C 23,6 C 32,3 C 32,3 C 6,2 C 56 % 66 % 100 % 1012,8 hPa 0,0 l/m 2,1 km/h (1 Bft) SO 135 6 min 4,7 UV-I 16,6 C 32,3 C 1,8 km/h (1 Bft)
09.07.2011 12:20 26,3 C 20,2 C 24,0 C 32,6 C 32,6 C 6,3 C 56 % 67 % 100 % 1012,8 hPa 0,0 l/m 2,1 km/h (1 Bft) S 180 5 min 4,9 UV-I 16,8 C 32,6 C 2,7 km/h (1 Bft)
09.07.2011 12:25 26,2 C 20,2 C 23,9 C 31,9 C 31,9 C 5,7 C 56 % 66 % 100 % 1012,8 hPa 0,0 l/m 3,1 km/h (1 Bft) NW 315 5 min 4,3 UV-I 16,7 C 31,9 C 13,8 km/h (3 Bft)
09.07.2011 12:30 26,3 C 20,2 C 24,1 C 31,8 C 31,8 C 5,5 C 55 % 67 % 100 % 1012,9 hPa 0,0 l/m 3,7 km/h (1 Bft) S 180 5 min 4,9 UV-I 16,5 C 31,8 C 5,0 km/h (1 Bft)
09.07.2011 12:35 26,3 C 20,3 C 24,1 C 31,8 C 31,8 C 5,5 C 55 % 65 % 100 % 1012,9 hPa 0,0 l/m 3,7 km/h (1 Bft) W-SW 247 5 min 5,0 UV-I 16,5 C 31,8 C 6,1 km/h (2 Bft)
09.07.2011 12:40 26,5 C 20,3 C 24,3 C 31,7 C 31,7 C 5,2 C 54 % 65 % 100 % 1012,9 hPa 0,0 l/m 4,3 km/h (1 Bft) SW 225 5 min 5,1 UV-I 16,4 C 31,7 C 6,8 km/h (2 Bft)
09.07.2011 12:45 26,4 C 20,3 C 24,4 C 31,1 C 31,1 C 4,7 C 54 % 63 % 100 % 1012,9 hPa 0,0 l/m 4,8 km/h (1 Bft) S-SO 157 5 min 4,1 UV-I 16,3 C 31,1 C 7,1 km/h (2 Bft)
09.07.2011 12:50 26,4 C 20,3 C 24,5 C 31,0 C 31,0 C 4,6 C 54 % 63 % 100 % 1012,6 hPa 0,0 l/m 5,6 km/h (1 Bft) W-SW 247 5 min 4,9 UV-I 16,3 C 31,0 C 17,7 km/h (3 Bft)
09.07.2011 12:55 26,5 C 20,3 C 24,5 C 31,0 C 31,0 C 4,5 C 54 % 64 % 100 % 1012,6 hPa 0,0 l/m 5,5 km/h (1 Bft) W 270 5 min 5,0 UV-I 16,4 C 31,0 C 2,7 km/h (1 Bft)
09.07.2011 13:00 26,7 C 20,4 C 24,7 C 31,2 C 31,2 C 4,5 C 54 % 64 % 100 % 1012,6 hPa 0,0 l/m 5,0 km/h (1 Bft) W-SW 247 5 min 5,0 UV-I 16,6 C 31,2 C 9,5 km/h (2 Bft)
09.07.2011 13:09 26,8 C 20,4 C 24,8 C 31,9 C 31,9 C 5,1 C 55 % 64 % 100 % 1012,8 hPa 0,0 l/m 2,4 km/h (1 Bft) N 0 9 min 5,0 UV-I 17,0 C 31,9 C 1,6 km/h (1 Bft)
09.07.2011 13:15 27,1 C 20,5 C 25,0 C 32,7 C 32,7 C 5,6 C 53 % 63 % 100 % 1012,8 hPa 0,0 l/m 1,1 km/h (1 Bft) NW 315 6 min 5,0 UV-I 16,7 C 32,7 C 0,0 km/h (0 Bft)
09.07.2011 13:20 27,1 C 20,5 C 25,0 C 33,0 C 33,0 C 5,9 C 54 % 64 % 100 % 1012,8 hPa 0,0 l/m 1,9 km/h (1 Bft) S-SW 202 5 min 5,1 UV-I 17,0 C 33,0 C 4,3 km/h (1 Bft)
09.07.2011 13:25 27,1 C 20,5 C 25,3 C 32,7 C 32,7 C 5,6 C 52 % 61 % 100 % 1012,8 hPa 0,0 l/m 3,5 km/h (1 Bft) S-SW 202 5 min 5,1 UV-I 16,4 C 32,7 C 2,3 km/h (1 Bft)
09.07.2011 13:30 27,0 C 20,5 C 25,2 C 32,1 C 32,1 C 5,1 C 53 % 62 % 100 % 1012,6 hPa 0,0 l/m 4,2 km/h (1 Bft) N 360 5 min 3,8 UV-I 16,6 C 32,1 C 3,7 km/h (1 Bft)
09.07.2011 13:35 26,8 C 20,5 C 25,2 C 31,2 C 31,2 C 4,4 C 51 % 60 % 100 % 1012,6 hPa 0,0 l/m 4,3 km/h (1 Bft) O-SO 112 5 min 3,4 UV-I 15,8 C 31,2 C 5,6 km/h (1 Bft)
09.07.2011 13:40 26,9 C 20,6 C 25,3 C 30,7 C 30,7 C 3,8 C 52 % 60 % 100 % 1012,6 hPa 0,0 l/m 4,3 km/h (1 Bft) SW 225 5 min 4,1 UV-I 16,2 C 30,7 C 7,1 km/h (2 Bft)
09.07.2011 13:45 27,3 C 20,6 C 25,2 C 31,7 C 31,7 C 4,4 C 52 % 61 % 100 % 1012,6 hPa 0,0 l/m 3,4 km/h (1 Bft) W-SW 247 5 min 5,2 UV-I 16,6 C 31,7 C 3,4 km/h (1 Bft)
09.07.2011 13:50 27,3 C 20,6 C 25,5 C 31,9 C 31,9 C 4,6 C 51 % 60 % 100 % 1012,6 hPa 0,0 l/m 4,5 km/h (1 Bft) W-SW 247 5 min 4,5 UV-I 16,3 C 31,9 C 9,5 km/h (2 Bft)
09.07.2011 13:55 27,2 C 20,7 C 25,7 C 31,6 C 31,6 C 4,4 C 52 % 62 % 100 % 1012,6 hPa 0,0 l/m 5,8 km/h (2 Bft) W-SW 247 5 min 3,8 UV-I 16,5 C 31,6 C 7,6 km/h (2 Bft)
09.07.2011 14:00 27,4 C 20,7 C 25,9 C 31,8 C 31,8 C 4,4 C 52 % 62 % 100 % 1012,6 hPa 0,0 l/m 5,0 km/h (1 Bft) O-SO 112 5 min 4,5 UV-I 16,7 C 31,8 C 6,4 km/h (2 Bft)
09.07.2011 14:09 27,6 C 20,7 C 26,0 C 32,8 C 32,8 C 5,2 C 52 % 61 % 100 % 1012,5 hPa 0,0 l/m 2,4 km/h (1 Bft) N 0 9 min 2,8 UV-I 16,8 C 32,8 C 4,5 km/h (1 Bft)
09.07.2011 14:15 27,6 C 20,8 C 26,1 C 32,6 C 32,6 C 5,0 C 50 % 60 % 100 % 1012,5 hPa 0,0 l/m 3,7 km/h (1 Bft) O-SO 112 6 min 4,3 UV-I 16,2 C 32,6 C 10,3 km/h (2 Bft)
09.07.2011 14:20 27,6 C 20,7 C 26,3 C 32,9 C 32,9 C 5,3 C 50 % 59 % 100 % 1012,5 hPa 0,0 l/m 4,2 km/h (1 Bft) W-SW 247 5 min 4,2 UV-I 16,2 C 32,9 C 1,8 km/h (1 Bft)
09.07.2011 14:25 27,4 C 20,8 C 25,9 C 32,0 C 32,0 C 4,6 C 51 % 58 % 100 % 1012,5 hPa 0,0 l/m 2,9 km/h (1 Bft) O-NO 67 5 min 2,4 UV-I 16,3 C 32,0 C 2,3 km/h (1 Bft)
09.07.2011 14:30 27,5 C 20,8 C 25,9 C 31,8 C 31,8 C 4,3 C 52 % 61 % 100 % 1012,5 hPa 0,0 l/m 1,6 km/h (1 Bft) S-SO 157 5 min 2,7 UV-I 16,7 C 31,8 C 0,0 km/h (0 Bft)
09.07.2011 14:35 27,7 C 20,9 C 26,0 C 32,6 C 32,6 C 4,9 C 52 % 60 % 100 % 1012,5 hPa 0,0 l/m 0,5 km/h (0 Bft) S 180 5 min 3,6 UV-I 16,9 C 32,6 C 0,0 km/h (0 Bft)
09.07.2011 14:40 27,9 C 20,8 C 26,4 C 33,4 C 33,4 C 5,5 C 52 % 62 % 100 % 1012,5 hPa 0,0 l/m 0,8 km/h (0 Bft) S-SO 157 5 min 4,1 UV-I 17,1 C 33,4 C 2,7 km/h (1 Bft)
09.07.2011 14:45 27,6 C 20,9 C 26,4 C 33,3 C 33,3 C 5,7 C 53 % 61 % 100 % 1012,5 hPa 0,0 l/m 2,1 km/h (1 Bft) O-SO 112 5 min 3,5 UV-I 17,1 C 33,3 C 6,8 km/h (2 Bft)
09.07.2011 14:50 27,7 C 20,9 C 26,6 C 32,6 C 32,6 C 4,9 C 52 % 61 % 100 % 1012,4 hPa 0,0 l/m 2,7 km/h (1 Bft) SW 225 5 min 3,3 UV-I 16,9 C 32,6 C 8,7 km/h (2 Bft)
09.07.2011 14:55 28,0 C 20,9 C 27,3 C 33,1 C 33,1 C 5,1 C 51 % 56 % 100 % 1012,4 hPa 0,0 l/m 3,5 km/h (1 Bft) SW 225 5 min 4,2 UV-I 16,9 C 33,1 C 5,8 km/h (2 Bft)
09.07.2011 15:00 27,9 C 20,9 C 27,1 C 32,9 C 32,9 C 5,0 C 51 % 58 % 100 % 1012,4 hPa 0,0 l/m 3,7 km/h (1 Bft) SO 135 5 min 2,9 UV-I 16,8 C 32,9 C 0,0 km/h (0 Bft)
09.07.2011 15:09 28,4 C 21,0 C 28,3 C 33,7 C 33,7 C 5,3 C 49 % 56 % 100 % 1012,9 hPa 0,0 l/m 4,2 km/h (1 Bft) N 0 9 min 4,3 UV-I 16,6 C 33,7 C 10,9 km/h (2 Bft)
09.07.2011 15:15 28,7 C 21,0 C 28,6 C 33,8 C 33,8 C 5,1 C 49 % 56 % 100 % 1012,9 hPa 0,0 l/m 4,3 km/h (1 Bft) W-SW 247 6 min 3,9 UV-I 16,9 C 33,8 C 3,4 km/h (1 Bft)
09.07.2011 15:20 28,5 C 21,0 C 28,7 C 33,7 C 33,7 C 5,2 C 49 % 54 % 100 % 1012,9 hPa 0,0 l/m 4,3 km/h (1 Bft) SW 225 5 min 3,1 UV-I 16,7 C 33,7 C 4,8 km/h (1 Bft)
09.07.2011 15:25 28,5 C 21,0 C 28,2 C 32,8 C 32,8 C 4,3 C 49 % 55 % 100 % 1012,9 hPa 0,0 l/m 3,5 km/h (1 Bft) SW 225 5 min 2,5 UV-I 16,7 C 32,8 C 1,8 km/h (1 Bft)
09.07.2011 15:30 28,4 C 21,0 C 28,3 C 33,0 C 33,0 C 4,6 C 48 % 54 % 100 % 1012,8 hPa 0,0 l/m 2,9 km/h (1 Bft) S 180 5 min 2,6 UV-I 16,3 C 33,0 C 5,5 km/h (1 Bft)
09.07.2011 15:35 28,7 C 21,1 C 28,4 C 33,5 C 33,5 C 4,8 C 49 % 53 % 100 % 1012,8 hPa 0,0 l/m 2,3 km/h (1 Bft) S-SW 202 5 min 2,9 UV-I 16,9 C 33,5 C 2,9 km/h (1 Bft)
09.07.2011 15:40 28,5 C 21,2 C 28,2 C 33,9 C 33,9 C 5,4 C 48 % 53 % 100 % 1012,8 hPa 0,0 l/m 2,1 km/h (1 Bft) SW 225 5 min 2,1 UV-I 16,4 C 33,9 C 4,2 km/h (1 Bft)
09.07.2011 15:45 28,7 C 21,2 C 28,2 C 33,1 C 33,1 C 4,4 C 49 % 56 % 100 % 1012,8 hPa 0,0 l/m 2,4 km/h (1 Bft) SO 135 5 min 1,7 UV-I 16,9 C 33,1 C 4,0 km/h (1 Bft)
09.07.2011 15:50 28,8 C 21,3 C 28,6 C 33,8 C 33,8 C 5,0 C 48 % 53 % 100 % 1013,0 hPa 0,0 l/m 3,2 km/h (1 Bft) S 180 5 min 1,7 UV-I 16,7 C 33,8 C 5,5 km/h (1 Bft)
09.07.2011 15:55 28,8 C 21,3 C 28,5 C 34,1 C 34,1 C 5,3 C 47 % 52 % 100 % 1013,0 hPa 0,0 l/m 2,7 km/h (1 Bft) W-SW 247 5 min 1,8 UV-I 16,3 C 34,1 C 1,8 km/h (1 Bft)
09.07.2011 16:00 28,7 C 21,4 C 28,5 C 34,1 C 34,1 C 5,4 C 48 % 53 % 100 % 1013,0 hPa 0,0 l/m 2,7 km/h (1 Bft) NW 315 5 min 2,0 UV-I 16,6 C 34,1 C 5,3 km/h (1 Bft)
09.07.2011 16:09 28,6 C 21,4 C 28,2 C 34,1 C 34,1 C 5,5 C 48 % 54 % 100 % 1013,1 hPa 0,0 l/m 2,3 km/h (1 Bft) N 0 9 min 1,9 UV-I 16,5 C 34,1 C 2,1 km/h (1 Bft)
09.07.2011 16:15 28,5 C 21,5 C 27,5 C 33,1 C 33,1 C 4,6 C 49 % 56 % 100 % 1013,1 hPa 0,0 l/m 1,6 km/h (1 Bft) SO 135 6 min 1,5 UV-I 16,7 C 33,1 C 2,1 km/h (1 Bft)
09.07.2011 16:20 28,6 C 21,5 C 27,5 C 32,8 C 32,8 C 4,2 C 48 % 55 % 100 % 1013,1 hPa 0,0 l/m 1,4 km/h (1 Bft) O-SO 112 5 min 2,0 UV-I 16,5 C 32,8 C 3,9 km/h (1 Bft)
09.07.2011 16:25 28,9 C 21,5 C 28,0 C 33,8 C 33,8 C 4,9 C 50 % 56 % 100 % 1013,1 hPa 0,0 l/m 2,3 km/h (1 Bft) S 180 5 min 2,1 UV-I 17,4 C 33,8 C 4,8 km/h (1 Bft)
09.07.2011 16:30 29,1 C 21,6 C 28,5 C 33,8 C 33,8 C 4,7 C 49 % 55 % 100 % 1013,0 hPa 0,0 l/m 3,9 km/h (1 Bft) S-SW 202 5 min 1,9 UV-I 17,3 C 33,8 C 10,5 km/h (2 Bft)
09.07.2011 16:35 29,2 C 21,6 C 28,4 C 33,8 C 33,8 C 4,6 C 47 % 53 % 100 % 1013,0 hPa 0,0 l/m 3,7 km/h (1 Bft) W-SW 247 5 min 2,0 UV-I 16,7 C 33,8 C 5,3 km/h (1 Bft)
09.07.2011 16:40 29,2 C 21,6 C 28,3 C 34,1 C 34,1 C 4,9 C 47 % 53 % 100 % 1013,0 hPa 0,0 l/m 2,6 km/h (1 Bft) S 180 5 min 1,9 UV-I 16,7 C 34,1 C 4,0 km/h (1 Bft)
09.07.2011 16:45 29,3 C 21,7 C 28,1 C 34,4 C 34,4 C 5,1 C 47 % 52 % 100 % 1013,0 hPa 0,0 l/m 1,8 km/h (1 Bft) NO 45 5 min 1,7 UV-I 16,8 C 34,4 C 1,8 km/h (1 Bft)
09.07.2011 16:50 29,2 C 21,7 C 28,1 C 34,5 C 34,5 C 5,3 C 46 % 52 % 100 % 1013,0 hPa 0,0 l/m 2,3 km/h (1 Bft) N-NO 22 5 min 1,7 UV-I 16,4 C 34,5 C 6,8 km/h (2 Bft)
09.07.2011 16:55 29,3 C 21,7 C 28,1 C 34,4 C 34,4 C 5,1 C 46 % 54 % 100 % 1013,0 hPa 0,0 l/m 2,4 km/h (1 Bft) S 180 5 min 1,6 UV-I 16,5 C 34,4 C 5,8 km/h (2 Bft)
09.07.2011 17:00 29,2 C 21,7 C 28,0 C 34,2 C 34,2 C 5,0 C 46 % 54 % 100 % 1013,0 hPa 0,0 l/m 3,5 km/h (1 Bft) W-SW 247 5 min 1,5 UV-I 16,4 C 34,2 C 5,8 km/h (2 Bft)
09.07.2011 17:09 29,6 C 21,8 C 28,3 C 33,6 C 33,6 C 4,0 C 44 % 50 % 100 % 1013,1 hPa 0,0 l/m 4,8 km/h (1 Bft) N 0 9 min 1,3 UV-I 16,0 C 33,6 C 6,0 km/h (2 Bft)
09.07.2011 17:15 29,6 C 21,8 C 28,1 C 33,6 C 33,6 C 4,0 C 44 % 52 % 100 % 1013,1 hPa 0,0 l/m 4,0 km/h (1 Bft) S 180 6 min 1,2 UV-I 16,0 C 33,6 C 7,9 km/h (2 Bft)
09.07.2011 17:20 29,7 C 21,8 C 28,2 C 33,6 C 33,6 C 3,9 C 44 % 51 % 100 % 1013,1 hPa 0,0 l/m 4,3 km/h (1 Bft) SW 225 5 min 1,2 UV-I 16,1 C 33,6 C 6,3 km/h (2 Bft)
09.07.2011 17:25 29,9 C 21,9 C 28,2 C 33,6 C 33,6 C 3,7 C 43 % 51 % 97 % 1013,1 hPa 0,0 l/m 4,5 km/h (1 Bft) N-NW 337 5 min 1,1 UV-I 15,9 C 33,6 C 4,3 km/h (1 Bft)
09.07.2011 17:30 29,9 C 21,9 C 28,1 C 33,8 C 33,8 C 3,9 C 43 % 50 % 100 % 1013,0 hPa 0,0 l/m 4,0 km/h (1 Bft) S 180 5 min 1,1 UV-I 15,9 C 33,8 C 6,0 km/h (2 Bft)
09.07.2011 17:35 29,9 C 21,9 C 28,3 C 33,7 C 33,7 C 3,8 C 43 % 50 % 100 % 1013,0 hPa 0,0 l/m 4,2 km/h (1 Bft) N-NO 22 5 min 1,0 UV-I 15,9 C 33,7 C 5,0 km/h (1 Bft)
09.07.2011 17:40 30,0 C 21,9 C 28,3 C 33,8 C 33,8 C 3,8 C 43 % 53 % 100 % 1013,0 hPa 0,0 l/m 4,0 km/h (1 Bft) SW 225 5 min 1,0 UV-I 16,0 C 33,8 C 5,0 km/h (1 Bft)
09.07.2011 17:45 30,1 C 22,0 C 28,3 C 34,0 C 34,0 C 3,9 C 44 % 52 % 100 % 1013,0 hPa 0,0 l/m 2,9 km/h (1 Bft) SW 225 5 min 0,9 UV-I 16,5 C 34,0 C 2,3 km/h (1 Bft)
09.07.2011 17:50 30,3 C 22,0 C 28,2 C 34,1 C 34,1 C 3,8 C 43 % 52 % 100 % 1012,9 hPa 0,0 l/m 3,4 km/h (1 Bft) SO 135 5 min 0,8 UV-I 16,3 C 34,1 C 5,5 km/h (1 Bft)
09.07.2011 17:55 30,3 C 22,0 C 28,2 C 34,1 C 34,1 C 3,8 C 43 % 50 % 100 % 1012,9 hPa 0,0 l/m 3,2 km/h (1 Bft) O-NO 67 5 min 0,8 UV-I 16,3 C 34,1 C 2,9 km/h (1 Bft)
09.07.2011 18:00 30,2 C 22,0 C 28,3 C 34,0 C 34,0 C 3,8 C 41 % 50 % 100 % 1012,9 hPa 0,0 l/m 4,0 km/h (1 Bft) S 180 5 min 0,8 UV-I 15,5 C 34,0 C 7,7 km/h (2 Bft)
09.07.2011 18:09 30,3 C 22,0 C 28,1 C 33,5 C 33,5 C 3,2 C 42 % 51 % 84 % 1013,2 hPa 0,0 l/m 5,0 km/h (1 Bft) N 0 0 min 0,7 UV-I 15,9 C 33,5 C 19,6 km/h (3 Bft)
09.07.2011 18:15 30,3 C 22,1 C 28,1 C 33,6 C 33,6 C 3,3 C 42 % 51 % 87 % 1013,2 hPa 0,0 l/m 3,2 km/h (1 Bft) S-SW 202 6 min 0,6 UV-I 15,9 C 33,6 C 1,9 km/h (1 Bft)
09.07.2011 18:20 30,4 C 22,1 C 27,9 C 33,8 C 33,8 C 3,4 C 42 % 51 % 89 % 1013,2 hPa 0,0 l/m 2,7 km/h (1 Bft) W-SW 247 5 min 0,6 UV-I 16,0 C 33,8 C 3,7 km/h (1 Bft)
09.07.2011 18:25 30,5 C 22,1 C 27,9 C 34,0 C 34,0 C 3,5 C 43 % 52 % 92 % 1013,2 hPa 0,0 l/m 2,1 km/h (1 Bft) SW 225 5 min 0,5 UV-I 16,5 C 34,0 C 4,2 km/h (1 Bft)
09.07.2011 18:30 30,5 C 22,1 C 27,8 C 34,0 C 34,0 C 3,5 C 43 % 53 % 92 % 1013,3 hPa 0,0 l/m 2,9 km/h (1 Bft) SW 225 5 min 0,5 UV-I 16,5 C 34,0 C 1,6 km/h (1 Bft)
09.07.2011 18:35 30,5 C 22,1 C 27,8 C 34,1 C 34,1 C 3,6 C 43 % 52 % 95 % 1013,3 hPa 0,0 l/m 2,3 km/h (1 Bft) S-SO 157 5 min 0,5 UV-I 16,5 C 34,1 C 2,3 km/h (1 Bft)
09.07.2011 18:40 30,7 C 22,1 C 27,7 C 34,3 C 34,3 C 3,6 C 43 % 53 % 95 % 1013,3 hPa 0,0 l/m 1,4 km/h (1 Bft) W-SW 247 5 min 0,4 UV-I 16,7 C 34,3 C 2,7 km/h (1 Bft)
09.07.2011 18:45 30,5 C 22,1 C 27,6 C 34,2 C 34,2 C 3,7 C 43 % 51 % 97 % 1013,3 hPa 0,0 l/m 1,9 km/h (1 Bft) S-SO 157 5 min 0,4 UV-I 16,5 C 34,2 C 3,4 km/h (1 Bft)
09.07.2011 18:50 30,5 C 22,1 C 27,7 C 34,0 C 34,0 C 3,5 C 44 % 53 % 92 % 1013,4 hPa 0,0 l/m 1,4 km/h (1 Bft) W 270 5 min 0,4 UV-I 16,8 C 34,0 C 0,0 km/h (0 Bft)
09.07.2011 18:55 30,5 C 22,1 C 27,7 C 33,8 C 33,8 C 3,3 C 43 % 52 % 87 % 1013,4 hPa 0,0 l/m 1,4 km/h (1 Bft) W-SW 247 5 min 0,3 UV-I 16,5 C 33,8 C 1,8 km/h (1 Bft)
09.07.2011 19:00 30,2 C 22,1 C 27,5 C 33,4 C 33,4 C 3,2 C 43 % 52 % 84 % 1013,4 hPa 0,0 l/m 2,1 km/h (1 Bft) SO 135 0 min 0,3 UV-I 16,2 C 33,4 C 2,6 km/h (1 Bft)
09.07.2011 19:09 30,2 C 22,2 C 27,1 C 32,5 C 32,5 C 2,3 C 43 % 54 % 61 % 1013,6 hPa 0,0 l/m 2,6 km/h (1 Bft) N 0 0 min 0,2 UV-I 16,2 C 32,5 C 2,1 km/h (1 Bft)
09.07.2011 19:15 30,3 C 22,2 C 27,1 C 32,3 C 32,3 C 2,0 C 44 % 55 % 53 % 1013,6 hPa 0,0 l/m 2,9 km/h (1 Bft) W-SW 247 0 min 0,2 UV-I 16,7 C 32,3 C 0,0 km/h (0 Bft)
09.07.2011 19:20 30,2 C 22,2 C 27,0 C 32,2 C 32,2 C 2,0 C 44 % 55 % 53 % 1013,6 hPa 0,0 l/m 2,7 km/h (1 Bft) O-SO 112 0 min 0,2 UV-I 16,6 C 32,2 C 4,3 km/h (1 Bft)
09.07.2011 19:25 30,3 C 22,2 C 26,9 C 32,1 C 32,1 C 1,8 C 45 % 56 % 47 % 1013,6 hPa 0,0 l/m 1,9 km/h (1 Bft) S 180 0 min 0,2 UV-I 17,0 C 32,1 C 0,0 km/h (0 Bft)
09.07.2011 19:30 30,3 C 22,2 C 26,8 C 32,1 C 32,1 C 1,8 C 45 % 56 % 47 % 1013,4 hPa 0,0 l/m 1,9 km/h (1 Bft) S 180 0 min 0,1 UV-I 17,0 C 32,1 C 0,0 km/h (0 Bft)
09.07.2011 19:35 30,3 C 22,2 C 26,8 C 32,0 C 32,0 C 1,7 C 45 % 56 % 45 % 1013,4 hPa 0,0 l/m 1,3 km/h (1 Bft) S 180 0 min 0,1 UV-I 17,0 C 32,0 C 0,0 km/h (0 Bft)
09.07.2011 19:40 30,3 C 22,2 C 26,6 C 32,0 C 32,0 C 1,7 C 46 % 57 % 45 % 1013,4 hPa 0,0 l/m 1,3 km/h (1 Bft) SW 225 0 min 0,1 UV-I 17,4 C 32,0 C 5,5 km/h (1 Bft)
09.07.2011 19:45 30,1 C 22,2 C 26,4 C 31,7 C 31,7 C 1,6 C 47 % 60 % 42 % 1013,4 hPa 0,0 l/m 1,8 km/h (1 Bft) NW 315 0 min 0,1 UV-I 17,5 C 31,7 C 3,9 km/h (1 Bft)
09.07.2011 19:50 30,1 C 22,2 C 26,3 C 31,5 C 31,5 C 1,4 C 47 % 60 % 37 % 1013,6 hPa 0,0 l/m 2,9 km/h (1 Bft) O-NO 67 0 min 0,1 UV-I 17,5 C 31,5 C 6,1 km/h (2 Bft)
09.07.2011 19:55 29,7 C 22,2 C 26,1 C 30,7 C 30,7 C 1,0 C 48 % 60 % 26 % 1013,6 hPa 0,0 l/m 3,2 km/h (1 Bft) SW 225 0 min 0,1 UV-I 17,5 C 30,7 C 3,9 km/h (1 Bft)
09.07.2011 20:00 29,3 C 22,2 C 26,0 C 29,7 C 29,7 C 0,4 C 50 % 62 % 11 % 1013,6 hPa 0,0 l/m 2,7 km/h (1 Bft) SW 225 0 min 0,0 UV-I 17,8 C 29,7 C 2,1 km/h (1 Bft)
09.07.2011 20:09 28,6 C 22,3 C 25,3 C 28,2 C 27,5 C 0,0 C 51 % 65 % 0 % 1013,7 hPa 0,0 l/m 1,9 km/h (1 Bft) N 0 0 min 0,0 UV-I 17,4 C 27,5 C 2,4 km/h (1 Bft)
09.07.2011 20:15 28,4 C 22,3 C 24,9 C 27,8 C 26,6 C 0,0 C 54 % 65 % 0 % 1013,7 hPa 0,0 l/m 1,4 km/h (1 Bft) S-SW 202 0 min 0,0 UV-I 18,2 C 26,6 C 1,9 km/h (1 Bft)
09.07.2011 20:20 28,1 C 22,3 C 24,7 C 27,4 C 26,1 C 0,0 C 55 % 66 % 0 % 1013,7 hPa 0,0 l/m 1,4 km/h (1 Bft) W-SW 247 0 min 0,0 UV-I 18,2 C 26,1 C 0,0 km/h (0 Bft)
09.07.2011 20:25 27,9 C 22,3 C 24,4 C 27,1 C 25,5 C 0,0 C 53 % 65 % 0 % 1013,7 hPa 0,0 l/m 1,6 km/h (1 Bft) SW 225 0 min 0,0 UV-I 17,4 C 25,5 C 2,6 km/h (1 Bft)
09.07.2011 20:30 27,7 C 22,3 C 24,4 C 26,9 C 25,3 C 0,0 C 53 % 66 % 0 % 1013,4 hPa 0,0 l/m 1,3 km/h (1 Bft) SW 225 0 min 0,0 UV-I 17,2 C 25,3 C 2,3 km/h (1 Bft)
09.07.2011 20:35 27,6 C 22,3 C 24,3 C 26,7 C 24,8 C 0,0 C 53 % 66 % 0 % 1013,4 hPa 0,0 l/m 1,4 km/h (1 Bft) W-SW 247 0 min 0,0 UV-I 17,1 C 24,8 C 2,3 km/h (1 Bft)
09.07.2011 20:40 27,3 C 22,3 C 24,1 C 26,4 C 24,5 C 0,0 C 55 % 67 % 0 % 1013,4 hPa 0,0 l/m 1,0 km/h (0 Bft) W 270 0 min 0,0 UV-I 17,4 C 24,5 C 0,0 km/h (0 Bft)
09.07.2011 20:45 26,8 C 22,3 C 23,5 C 25,9 C 24,1 C 0,0 C 56 % 68 % 0 % 1013,4 hPa 0,0 l/m 0,8 km/h (0 Bft) W-SW 247 0 min 0,0 UV-I 17,3 C 24,1 C 1,8 km/h (1 Bft)
09.07.2011 20:50 26,8 C 22,3 C 23,3 C 25,8 C 23,9 C 0,0 C 57 % 69 % 0 % 1013,5 hPa 0,0 l/m 0,8 km/h (0 Bft) SW 225 0 min 0,0 UV-I 17,6 C 23,9 C 0,0 km/h (0 Bft)
09.07.2011 20:55 26,4 C 22,4 C 23,1 C 25,4 C 23,5 C 0,0 C 58 % 71 % 0 % 1013,5 hPa 0,0 l/m 0,5 km/h (0 Bft) W 270 0 min 0,0 UV-I 17,5 C 23,5 C 0,0 km/h (0 Bft)
09.07.2011 21:00 26,0 C 22,4 C 22,8 C 25,1 C 23,2 C 0,0 C 59 % 70 % 0 % 1013,5 hPa 0,0 l/m 0,2 km/h (0 Bft) W-SW 247 0 min 0,0 UV-I 17,4 C 23,2 C 0,0 km/h (0 Bft)
09.07.2011 21:09 25,6 C 22,4 C 22,5 C 24,6 C 22,5 C 0,0 C 60 % 71 % 0 % 1013,4 hPa 0,0 l/m 0,0 km/h (0 Bft) N 0 0 min 0,0 UV-I 17,2 C 22,5 C 0,0 km/h (0 Bft)
09.07.2011 21:15 25,3 C 22,4 C 22,2 C 24,2 C 22,1 C 0,0 C 60 % 71 % 0 % 1013,4 hPa 0,0 l/m 0,0 km/h (0 Bft) O-SO 112 0 min 0,0 UV-I 17,0 C 22,1 C 0,0 km/h (0 Bft)
09.07.2011 21:20 25,1 C 22,4 C 22,1 C 24,0 C 21,9 C 0,0 C 61 % 71 % 0 % 1013,4 hPa 0,0 l/m 0,0 km/h (0 Bft) SO 135 0 min 0,0 UV-I 17,0 C 21,9 C 0,0 km/h (0 Bft)
09.07.2011 21:25 24,9 C 22,4 C 21,8 C 23,8 C 21,5 C 0,0 C 62 % 73 % 0 % 1013,4 hPa 0,0 l/m 0,0 km/h (0 Bft) S 180 0 min 0,0 UV-I 17,1 C 21,5 C 0,0 km/h (0 Bft)
09.07.2011 21:30 24,6 C 22,4 C 21,6 C 23,5 C 21,2 C 0,0 C 63 % 73 % 0 % 1013,8 hPa 0,0 l/m 0,0 km/h (0 Bft) NO 45 0 min 0,0 UV-I 17,1 C 21,2 C 0,0 km/h (0 Bft)
09.07.2011 21:35 24,2 C 22,4 C 21,4 C 23,1 C 20,9 C 0,0 C 64 % 75 % 0 % 1013,8 hPa 0,0 l/m 0,0 km/h (0 Bft) O 90 0 min 0,0 UV-I 16,9 C 20,9 C 0,0 km/h (0 Bft)
09.07.2011 21:40 24,0 C 22,4 C 21,2 C 22,9 C 20,7 C 0,0 C 64 % 75 % 0 % 1013,8 hPa 0,0 l/m 0,0 km/h (0 Bft) O-NO 67 0 min 0,0 UV-I 16,8 C 20,7 C 0,0 km/h (0 Bft)
09.07.2011 21:45 24,0 C 22,4 C 21,0 C 22,8 C 20,4 C 0,0 C 65 % 76 % 0 % 1013,8 hPa 0,0 l/m 0,2 km/h (0 Bft) W-SW 247 0 min 0,0 UV-I 17,0 C 20,4 C 0,0 km/h (0 Bft)
09.07.2011 21:50 24,0 C 22,4 C 21,1 C 22,8 C 20,3 C 0,0 C 65 % 76 % 0 % 1013,7 hPa 0,0 l/m 0,2 km/h (0 Bft) SW 225 0 min 0,0 UV-I 17,0 C 20,3 C 0,0 km/h (0 Bft)
09.07.2011 21:55 23,6 C 22,4 C 20,8 C 22,4 C 20,1 C 0,0 C 65 % 77 % 0 % 1013,7 hPa 0,0 l/m 0,0 km/h (0 Bft) S 180 0 min 0,0 UV-I 16,6 C 20,1 C 0,0 km/h (0 Bft)
09.07.2011 22:00 23,4 C 22,4 C 20,7 C 22,3 C 20,1 C 0,0 C 65 % 77 % 0 % 1013,7 hPa 0,0 l/m 0,0 km/h (0 Bft) S 180 0 min 0,0 UV-I 16,4 C 20,1 C 0,0 km/h (0 Bft)
09.07.2011 22:09 23,1 C 22,3 C 20,4 C 22,0 C 19,9 C 0,0 C 65 % 77 % 0 % 1013,7 hPa 0,0 l/m 0,0 km/h (0 Bft) N 0 0 min 0,0 UV-I 16,2 C 19,9 C 0,0 km/h (0 Bft)
09.07.2011 22:15 22,9 C 22,3 C 20,3 C 21,8 C 19,7 C 0,0 C 65 % 76 % 0 % 1013,7 hPa 0,0 l/m 0,0 km/h (0 Bft) O 90 0 min 0,0 UV-I 16,0 C 19,7 C 0,0 km/h (0 Bft)
09.07.2011 22:20 22,9 C 22,3 C 20,3 C 21,8 C 19,7 C 0,0 C 65 % 77 % 0 % 1013,7 hPa 0,0 l/m 0,0 km/h (0 Bft) O-NO 67 0 min 0,0 UV-I 16,0 C 19,7 C 0,0 km/h (0 Bft)
09.07.2011 22:25 22,7 C 22,3 C 20,1 C 21,6 C 19,5 C 0,0 C 67 % 77 % 0 % 1013,7 hPa 0,0 l/m 0,0 km/h (0 Bft) O-NO 67 0 min 0,0 UV-I 16,2 C 19,5 C 0,0 km/h (0 Bft)
09.07.2011 22:30 22,5 C 22,3 C 20,0 C 21,5 C 19,4 C 0,0 C 67 % 77 % 0 % 1014,0 hPa 0,0 l/m 0,0 km/h (0 Bft) O-NO 67 0 min 0,0 UV-I 16,1 C 19,4 C 0,0 km/h (0 Bft)
09.07.2011 22:35 22,4 C 22,3 C 19,9 C 21,3 C 19,1 C 0,0 C 67 % 78 % 0 % 1014,0 hPa 0,0 l/m 0,0 km/h (0 Bft) O-NO 67 0 min 0,0 UV-I 16,0 C 19,1 C 0,0 km/h (0 Bft)
09.07.2011 22:40 22,3 C 22,4 C 19,9 C 21,2 C 18,9 C 0,0 C 66 % 77 % 0 % 1014,0 hPa 0,0 l/m 0,0 km/h (0 Bft) O 90 0 min 0,0 UV-I 15,6 C 18,9 C 0,0 km/h (0 Bft)
09.07.2011 22:45 22,0 C 22,4 C 19,7 C 21,0 C 18,9 C 0,0 C 67 % 77 % 0 % 1014,0 hPa 0,0 l/m 0,2 km/h (0 Bft) O-NO 67 0 min 0,0 UV-I 15,6 C 18,9 C 1,6 km/h (1 Bft)
09.07.2011 22:50 21,9 C 22,4 C 19,5 C 20,9 C 18,9 C 0,0 C 68 % 78 % 0 % 1013,9 hPa 0,0 l/m 0,3 km/h (0 Bft) O-NO 67 0 min 0,0 UV-I 15,7 C 18,9 C 0,0 km/h (0 Bft)
09.07.2011 22:55 21,6 C 22,4 C 19,5 C 20,7 C 18,8 C 0,0 C 69 % 79 % 0 % 1013,9 hPa 0,0 l/m 0,2 km/h (0 Bft) O 90 0 min 0,0 UV-I 15,7 C 18,8 C 0,0 km/h (0 Bft)
09.07.2011 23:00 21,5 C 22,4 C 19,3 C 20,5 C 18,6 C 0,0 C 70 % 79 % 0 % 1013,9 hPa 0,0 l/m 0,0 km/h (0 Bft) O-NO 67 0 min 0,0 UV-I 15,8 C 18,6 C 0,0 km/h (0 Bft)
09.07.2011 23:09 21,5 C 22,3 C 19,3 C 20,5 C 18,5 C 0,0 C 70 % 79 % 0 % 1014,0 hPa 0,0 l/m 0,0 km/h (0 Bft) N 0 0 min 0,0 UV-I 15,8 C 18,5 C 0,0 km/h (0 Bft)
09.07.2011 23:15 21,4 C 22,3 C 19,1 C 20,4 C 18,5 C 0,0 C 70 % 79 % 0 % 1014,0 hPa 0,0 l/m 0,0 km/h (0 Bft) O-NO 67 0 min 0,0 UV-I 15,7 C 18,5 C 0,0 km/h (0 Bft)
09.07.2011 23:20 21,5 C 22,3 C 19,1 C 20,5 C 18,5 C 0,0 C 70 % 78 % 0 % 1014,0 hPa 0,0 l/m 0,0 km/h (0 Bft) O 90 0 min 0,0 UV-I 15,8 C 18,5 C 0,0 km/h (0 Bft)
09.07.2011 23:25 21,3 C 22,3 C 19,1 C 20,4 C 18,5 C 0,0 C 69 % 79 % 0 % 1014,0 hPa 0,0 l/m 0,0 km/h (0 Bft) O-NO 67 0 min 0,0 UV-I 15,4 C 18,5 C 0,0 km/h (0 Bft)
09.07.2011 23:30 21,2 C 22,3 C 19,0 C 20,3 C 18,5 C 0,0 C 69 % 78 % 0 % 1014,1 hPa 0,0 l/m 0,0 km/h (0 Bft) O 90 0 min 0,1 UV-I 15,3 C 18,5 C 0,0 km/h (0 Bft)
09.07.2011 23:35 21,3 C 22,3 C 18,9 C 20,3 C 18,4 C 0,0 C 70 % 79 % 0 % 1014,1 hPa 0,0 l/m 0,0 km/h (0 Bft) O 90 0 min 0,0 UV-I 15,6 C 18,4 C 0,0 km/h (0 Bft)
09.07.2011 23:40 21,0 C 22,3 C 18,8 C 20,1 C 18,3 C 0,0 C 71 % 80 % 0 % 1014,1 hPa 0,0 l/m 0,0 km/h (0 Bft) O-NO 67 0 min 0,1 UV-I 15,5 C 18,3 C 0,0 km/h (0 Bft)
09.07.2011 23:45 20,8 C 22,3 C 18,9 C 20,0 C 18,3 C 0,0 C 71 % 80 % 0 % 1014,1 hPa 0,0 l/m 0,2 km/h (0 Bft) O 90 0 min 0,1 UV-I 15,3 C 18,3 C 0,0 km/h (0 Bft)
09.07.2011 23:50 20,8 C 22,3 C 18,8 C 19,9 C 18,1 C 0,0 C 71 % 80 % 0 % 1014,0 hPa 0,0 l/m 0,2 km/h (0 Bft) O 90 0 min 0,2 UV-I 15,3 C 18,1 C 0,0 km/h (0 Bft)
09.07.2011 23:55 20,7 C 22,3 C 18,8 C 19,8 C 18,1 C 0,0 C 72 % 81 % 0 % 1014,0 hPa 0,0 l/m 0,5 km/h (0 Bft) O 90 0 min 0,2 UV-I 15,5 C 18,1 C 0,0 km/h (0 Bft)
_ Min-Zeit 04:55 09:30 04:45 04:35 04:08 00:00 18:00 17:09 00:00 14:50 - 00:00 - - - 00:00 04:55 04:08 00:00
Minimum _ 14,2 C 19,6 C 13,0 C 13,4 C 11,5 C 0,0 C 41 % 50 % 0 % 1012,4 hPa - 0,0 km/h (0 Bft) - - - 0,0 UV-I 11,7 C 11,5 C 0,0 km/h (0 Bft)
_ Max-Zeit 18:40 20:55 15:20 16:50 16:50 09:45 06:09 06:15 07:30 23:30 00:00 13:55 - - 09:10 13:45 20:20 16:50 18:09
Maximum _ 30,7 C 22,4 C 28,7 C 34,5 C 34,5 C 9,4 C 87 % 92 % 100 % 1014,1 hPa 0,0 l/m 5,8 km/h
W-SW (2 Bft)
- - 10 min 5,2 UV-I 18,2 C 34,5 C 19,6 km/h
N (3 Bft)
Durchschnitt _ 22,7 C 21,0 C 20,5 C 25,1 C 24,2 C 2,8 C 65 % 75 % 50 % 1013,1 hPa #0,0 l/m 1,3 km/h (1 Bft) SW - #11:26 h 2,3 UV-I 15,3 C 24,2 C 2,3 km/h (1 Bft)
2013 www.wetterstation-wechselburg.de